Temperature
17 17 17 17 17 17 17 17 17 17 17 17 17 17 17 17 16 17 17 17 16 16 16 16 16 16 16 16 15 15 15 15 15 15 15 15 15 15
17 17 17 17 17 17 17 17 17 17 16 16 16 16 16 16 16 16 16 16 16 16 16 16 15 15 15 15 15 15 15 15 15 15 15 15 15 15
17 17 17 17 17 17 17 17 16 16 16 16 16 16 16 16 16 16 16 16 16 16 16 15 15 15 15 15 15 15 15 15 15 15 15 15 14 14
17 17 17 17 17 17 16 16 16 16 16 16 16 15 15 15 15 15 15 15 15 15 15 15 15 15 15 15 15 15 15 15 15 15 15 14 14 14
17 16 16 16 16 16 16 16 16 15 15 15 15 15 15 15 15 15 15 15 15 15 15 15 15 15 15 14 14 14 14 14 14 14 14 14 14 14
16 16 16 16 16 16 15 15 15 15 15 15 15 14 14 14 14 14 14 14 14 14 14 14 14 14 14 14 14 14 14 14 14 14 14 14 14 13
16 16 16 16 16 15 15 15 15 15 14 14 14 14 14 14 14 14 14 14 14 14 14 14 14 14 14 14 14 14 14 14 14 14 14 13 13 13
16 16 16 15 15 15 15 15 14 14 14 14 14 14 13 13 13 13 13 13 13 13 13 14 13 14 14 14 14 14 14 13 13 13 13 13 13 13
15 15 15 15 15 15 15 14 14 14 14 14 13 13 13 13 13 13 13 13 13 13 13 13 13 13 13 13 13 13 13 13 13 13 13 13 13 13
15 15 15 15 14 14 14 14 14 14 13 13 13 13 13 13 13 12 12 12 12 12 12 12 13 13 13 13 13 13 13 13 13 13 13 13 12 12
15 15 14 14 14 14 14 14 14 13 13 13 13 13 13 13 12 12 12 12 12 12 12 12 12 12 12 12 12 12 12 12 12 12 12 12 12 12
14 14 14 14 14 14 13 13 13 13 13 13 13 13 12 12 12 12 12 12 12 12 12 12 12 12 11 12 12 12 12 12 12 12 12 12 11 11
14 14 14 14 13 13 13 13 13 13 12 12 12 12 12 12 12 12 12 12 12 12 12 12 11 11 11 11 11 11 11 11 11 11 11 11 11 11
14 13 13 13 13 13 13 12 12 12 12 12 12 12 12 12 12 12 12 12 11 11 11 11 11 11 11 11 11 11 11 11 11 11 11 11 10 10
13 13 13 13 13 12 12 12 12 12 12 11 12 11 11 11 11 11 11 11 11 11 11 11 11 11 11 11 11 10 10 10 10 10 10 10 10 10
13 12 12 12 12 12 12 11 11 11 11 11 11 11 11 11 11 11 11 11 11 11 11 10 10 10 10 10 10 10 10 10 10 10 10 10 10 10
13 12 12 12 12 11 11 11 11 11 11 11 10 10 11 10 10 10 10 10 10 10 10 10 10 10 10 10 10 10 9 9 10 9 9 9 9 9
12 12 12 12 11 11 11 11 11 11 10 10 10 10 10 10 10 10 10 10 10 10 10 10 10 10 10 9 9 9 9 9 9 9 9 9 9 9
12 12 12 11 11 11 11 10 10 10 10 10 10 10 10 10 10 10 10 10 9 9 9 9 9 9 9 9 9 9 9 9 9 9 9 9 9 9
12 11 11 11 11 10 10 10 10 10 10 10 9 9 9 9 9 9 9 9 9 9 9 9 9 9 9 8 8 9 9 8 8 8 8 8 8 8
11 11 11 11 10 10 10 10 10 9 9 9 9 9 9 9 9 9 9 9 9 9 9 9 9 8 8 8 8 8 8 8 8 8 8 8 8 8
11 11 10 10 10 10 10 9 9 9 9 9 9 9 9 9 9 9 9 9 9 9 8 8 8 8 8 8 8 8 8 8 8 8 8 8 8 8
11 10 10 10 10 9 9 9 9 9 9 9 9 9 9 9 9 9 9 9 8 8 8 8 8 8 8 8 8 8 8 8 8 8 8 8 8 7
Wind_Speed
1 1 1 1 0 1 2 3 3 1 2 2 2 1 2 3 4 4 4 6 8 9 10 10 9 8 8 8 8 8 8 8 8 9 9 10 10 10
1 1 0 1 0 1 1 2 3 3 2 2 2 2 2 2 2 2 3 4 5 7 8 8 8 8 8 8 7 8 8 8 8 8 8 9 9 9
0 1 0 0 0 0 0 1 1 2 2 3 2 1 1 2 2 2 2 2 2 5 7 8 8 7 7 8 8 8 8 8 8 8 8 8 8 8
1 1 1 0 0 1 0 0 1 2 2 2 2 1 2 2 2 2 2 2 1 2 4 5 7 7 7 7 8 8 8 8 8 8 7 7 7 7
3 2 2 1 0 1 0 0 0 0 1 2 2 1 1 1 1 2 2 2 1 1 1 3 5 6 6 7 8 9 8 8 8 8 7 7 7 6
3 3 2 2 2 1 1 0 0 1 1 0 1 1 1 1 1 1 2 2 2 1 0 2 3 4 5 6 7 8 8 8 8 7 7 7 6 6
2 2 2 2 2 2 1 1 1 1 0 0 1 1 1 1 1 1 1 2 2 1 1 1 1 1 3 4 6 7 7 8 8 7 7 7 7 6
3 2 2 1 1 1 1 1 2 2 2 2 1 1 2 2 1 1 1 1 2 2 1 2 1 2 2 3 5 6 7 7 8 8 7 7 7 7
3 2 1 1 1 1 1 1 1 1 3 4 3 3 3 3 2 1 1 2 3 3 0 2 1 2 2 3 4 6 6 6 6 7 7 7 6 6
3 3 3 2 1 1 1 1 1 2 2 2 3 4 4 4 3 3 3 2 2 2 1 2 2 2 2 2 3 3 4 5 5 5 6 6 6 5
2 3 3 3 2 3 2 1 1 3 3 1 1 2 3 4 3 1 1 1 1 2 1 1 1 1 1 2 2 2 2 2 3 3 4 4 4 4
1 1 3 3 3 2 2 2 2 3 3 3 3 4 3 3 3 3 3 3 2 2 2 1 1 0 1 2 1 2 2 2 1 2 3 3 4 3
2 2 2 3 3 2 2 3 4 3 1 1 1 2 2 2 2 2 2 3 3 3 3 1 1 1 1 1 2 2 1 1 1 1 1 3 4 4
4 3 3 5 4 3 2 2 2 1 0 0 1 1 2 2 2 2 1 2 3 4 3 2 2 2 2 1 2 2 1 1 1 1 1 1 2 4
4 5 5 4 3 2 2 1 1 1 1 1 1 2 2 2 1 1 1 1 2 2 2 2 2 1 2 2 2 2 2 2 1 1 1 1 1 1
2 2 3 3 2 2 1 1 1 2 2 2 2 2 2 1 1 1 0 1 1 3 3 2 1 2 1 2 2 2 2 2 2 1 1 1 1 2
3 2 1 1 1 1 1 1 1 1 1 1 1 1 1 1 1 1 0 0 1 1 3 3 2 1 1 2 1 2 2 2 2 2 1 2 2 3
5 3 2 3 3 3 2 2 2 2 2 2 2 2 2 2 2 1 0 1 1 1 2 2 2 2 3 2 2 2 1 2 2 2 1 2 3 3
4 3 3 3 3 3 3 3 3 3 2 2 2 2 2 2 2 1 1 1 1 2 2 1 0 1 0 3 4 2 2 2 1 1 2 2 3 4
3 4 4 4 3 3 3 3 3 3 2 2 3 3 3 2 2 2 2 2 2 2 2 1 1 2 3 4 3 3 4 3 2 2 2 1 2 3
4 4 4 4 4 4 4 4 3 3 3 3 3 4 3 3 3 3 3 4 3 2 3 3 4 3 1 1 0 3 3 4 5 3 2 1 1 1
4 4 3 3 3 4 3 3 3 3 3 3 4 4 4 3 4 4 3 3 3 3 4 3 2 0 0 1 2 3 3 3 3 3 4 5 3 3
3 3 3 3 3 3 3 3 4 3 3 3 3 3 3 3 3 3 3 3 3 3 3 2 1 1 1 2 2 3 3 3 2 2 3 4 4 6
Wind_Direction
238 205 208 270 279 169 161 158 158 213 274 273 280 290 265 247 251 237 236 231 221 220 217 211 212 221 220 220 223 225 226 227 228 229 230 230 232 236
217 122 143 256 15 47 127 148 159 170 228 261 250 262 288 309 298 276 267 250 234 221 213 210 212 219 222 227 228 228 226 228 231 231 232 231 232 236
235 138 233 192 94 359 84 119 133 146 207 273 270 284 302 305 317 308 304 289 251 221 217 215 217 217 220 225 228 228 227 228 230 232 232 231 231 235
211 166 255 274 23 334 63 108 166 167 174 242 286 292 276 271 290 308 326 324 273 230 220 219 223 221 223 226 230 228 227 228 231 233 234 235 230 229
206 200 229 184 251 289 318 228 270 152 155 182 260 273 280 292 340 337 341 340 307 263 234 234 235 237 236 235 234 232 230 228 227 228 230 232 230 227
208 205 209 190 202 215 206 206 169 30 67 132 280 302 297 318 47 325 328 318 306 293 241 209 231 243 246 242 240 237 234 232 228 228 228 228 225 223
206 214 213 197 193 188 183 182 168 177 149 143 275 311 308 331 306 269 283 302 302 264 278 246 227 264 274 262 251 245 239 235 231 229 228 225 220 219
203 217 225 210 175 126 103 163 180 185 193 183 215 237 269 266 271 260 235 317 299 280 255 276 237 256 270 255 247 247 244 239 231 226 223 219 215 213
194 195 208 194 150 107 42 31 8 284 195 182 196 223 234 239 229 251 245 246 252 257 202 276 277 267 278 276 258 251 247 240 227 220 218 214 212 215
182 177 177 182 186 155 127 54 348 319 260 205 205 226 234 232 218 219 220 254 274 279 191 238 275 274 300 307 292 266 247 239 231 222 216 216 215 214
189 182 174 178 185 148 133 146 320 315 317 296 229 259 266 266 236 164 158 128 295 296 276 185 248 279 298 293 312 332 297 263 249 234 219 211 204 201
208 207 187 181 181 163 168 187 250 283 308 339 347 343 328 307 272 200 188 182 207 269 274 181 223 111 337 311 321 334 337 331 292 250 226 212 199 185
195 224 228 189 179 193 184 200 228 239 265 295 317 327 335 324 306 264 203 187 192 232 249 186 206 189 185 278 312 310 302 310 326 316 226 221 212 196
203 220 223 203 201 200 199 229 244 223 148 42 345 314 309 304 301 297 258 224 220 225 246 208 198 199 184 244 278 305 316 305 262 243 233 233 225 218
203 206 207 202 201 211 222 230 221 148 148 183 259 277 276 277 301 332 353 2 342 312 298 253 205 206 183 212 236 253 290 294 270 238 227 217 219 207
196 200 187 180 181 197 214 206 190 188 179 204 238 266 287 311 315 303 307 360 13 334 332 320 232 185 204 231 218 243 247 253 267 260 237 238 232 207
167 139 121 113 165 248 261 254 232 198 198 206 219 260 274 283 294 308 247 124 151 287 322 338 2 76 195 193 206 244 253 267 261 260 237 250 254 237
146 163 189 195 204 212 216 230 233 223 220 214 217 228 236 245 265 274 179 167 210 254 271 300 352 18 13 343 220 219 249 261 271 282 248 239 258 256
154 184 197 203 209 210 211 213 227 232 213 200 214 231 237 245 247 249 239 223 244 260 271 270 252 134 260 293 298 249 219 253 264 268 264 243 247 254
185 189 198 204 207 206 212 221 230 231 219 217 221 227 224 228 238 233 220 213 232 251 282 283 227 206 217 237 254 279 257 225 221 239 254 268 276 280
204 207 206 203 205 207 212 216 219 224 227 219 222 226 224 220 229 228 221 222 221 233 252 259 256 234 223 101 329 297 291 268 235 220 217 221 273 281
203 208 212 205 202 204 208 210 215 224 225 225 228 230 229 221 224 223 217 216 226 231 242 257 275 253 81 225 250 267 290 312 318 282 246 219 193 202
210 210 209 211 208 203 206 211 213 224 227 228 230 233 228 227 228 218 214 216 226 234 238 254 279 283 252 235 245 260 271 287 302 333 326 315 253 242
Height
1530 1530 1530 1530 1529 1529 1529 1530 1530 1529 1529 1528 1528 1528 1527 1527 1526 1525 1525 1524 1524 1524 1524 1523 1523 1523 1524 1524 1524 1524 1523 1523 1523 1524 1524 1525 1525 1525
1528 1528 1528 1527 1527 1527 1527 1527 1527 1527 1526 1526 1526 1525 1525 1524 1523 1522 1522 1522 1521 1521 1521 1521 1521 1521 1521 1521 1521 1521 1520 1520 1521 1521 1521 1521 1522 1522
1526 1526 1525 1525 1525 1525 1525 1525 1525 1525 1524 1523 1523 1522 1522 1521 1521 1520 1519 1519 1519 1519 1519 1519 1518 1518 1518 1518 1518 1518 1517 1517 1517 1518 1518 1518 1518 1518
1523 1523 1523 1523 1523 1523 1522 1522 1522 1522 1522 1520 1520 1520 1519 1519 1518 1517 1517 1516 1516 1516 1516 1516 1515 1515 1515 1515 1515 1515 1514 1514 1514 1514 1514 1514 1514 1514
1521 1521 1521 1521 1521 1520 1520 1520 1520 1520 1519 1518 1517 1517 1516 1516 1515 1515 1514 1513 1513 1513 1513 1513 1513 1512 1512 1511 1512 1512 1511 1511 1511 1511 1511 1511 1511 1511
1519 1519 1519 1519 1518 1518 1518 1518 1517 1517 1517 1516 1515 1514 1514 1513 1513 1512 1511 1511 1510 1510 1510 1510 1509 1509 1509 1509 1509 1508 1508 1508 1508 1507 1507 1507 1507 1507
1517 1517 1517 1516 1516 1516 1516 1515 1515 1514 1514 1513 1513 1512 1511 1511 1510 1509 1508 1507 1507 1507 1507 1507 1506 1506 1505 1505 1505 1505 1505 1505 1504 1504 1504 1504 1504 1504
1514 1514 1514 1514 1514 1514 1513 1512 1512 1512 1511 1510 1510 1509 1509 1508 1508 1507 1506 1505 1504 1505 1504 1504 1504 1503 1503 1502 1502 1502 1502 1501 1501 1501 1501 1501 1501 1501
1511 1511 1511 1511 1511 1511 1510 1510 1509 1509 1509 1508 1507 1507 1506 1506 1505 1504 1504 1503 1502 1502 1502 1500 1501 1500 1500 1499 1499 1499 1499 1498 1498 1498 1498 1498 1498 1498
1508 1508 1508 1508 1508 1508 1507 1507 1506 1506 1506 1505 1505 1504 1504 1503 1502 1502 1501 1500 1500 1500 1499 1498 1498 1497 1497 1497 1497 1496 1496 1495 1495 1495 1495 1495 1495 1495
1505 1505 1505 1505 1505 1505 1504 1504 1503 1503 1503 1503 1502 1502 1501 1500 1499 1499 1498 1497 1496 1496 1497 1496 1495 1494 1494 1494 1494 1494 1493 1493 1492 1492 1491 1491 1491 1492
1502 1501 1502 1502 1501 1501 1501 1501 1500 1500 1500 1499 1499 1499 1498 1497 1497 1496 1496 1495 1494 1494 1494 1493 1493 1492 1491 1491 1491 1491 1491 1490 1490 1489 1489 1489 1489 1489
1498 1498 1498 1498 1498 1498 1498 1498 1497 1497 1497 1497 1496 1496 1495 1495 1494 1494 1493 1493 1492 1491 1492 1491 1490 1490 1490 1489 1489 1489 1488 1488 1487 1487 1486 1486 1486 1486
1495 1495 1495 1495 1495 1495 1495 1495 1495 1495 1494 1494 1493 1492 1492 1492 1491 1491 1491 1491 1490 1490 1489 1489 1488 1488 1487 1486 1486 1486 1485 1485 1485 1484 1484 1483 1483 1483
1491 1492 1492 1492 1492 1492 1492 1492 1492 1492 1491 1491 1490 1490 1490 1489 1489 1488 1488 1488 1488 1487 1487 1486 1486 1485 1485 1484 1483 1483 1482 1482 1482 1482 1481 1480 1480 1480
1488 1488 1489 1489 1489 1489 1489 1489 1489 1489 1488 1488 1487 1487 1487 1487 1486 1486 1485 1485 1485 1484 1484 1484 1483 1483 1482 1481 1481 1480 1479 1479 1479 1479 1478 1478 1477 1477
1484 1484 1485 1485 1485 1486 1486 1486 1486 1486 1485 1485 1485 1484 1484 1484 1484 1483 1483 1482 1482 1481 1481 1481 1481 1480 1479 1479 1478 1477 1477 1476 1476 1475 1475 1474 1474 1474
1480 1480 1481 1481 1482 1482 1482 1482 1482 1482 1482 1482 1482 1481 1481 1481 1481 1481 1480 1480 1479 1479 1479 1478 1478 1477 1477 1476 1477 1475 1474 1473 1473 1472 1472 1471 1470 1470
1476 1476 1477 1478 1478 1479 1479 1479 1479 1479 1479 1479 1479 1479 1478 1478 1478 1478 1478 1477 1477 1477 1476 1476 1475 1474 1473 1473 1473 1473 1472 1471 1470 1469 1469 1468 1467 1467
1472 1473 1473 1474 1475 1475 1475 1475 1476 1476 1476 1476 1476 1476 1476 1475 1475 1475 1475 1475 1474 1474 1473 1473 1472 1472 1471 1470 1469 1469 1469 1468 1467 1466 1465 1465 1464 1464
1468 1469 1469 1470 1470 1471 1471 1472 1472 1472 1473 1473 1473 1472 1472 1472 1472 1472 1472 1472 1471 1471 1470 1470 1470 1470 1469 1468 1467 1466 1466 1465 1465 1464 1463 1462 1461 1460
1465 1466 1466 1466 1467 1467 1468 1468 1468 1469 1469 1469 1469 1469 1469 1469 1468 1468 1468 1468 1468 1468 1468 1467 1467 1466 1466 1465 1463 1463 1462 1462 1462 1461 1461 1460 1459 1458
1463 1463 1463 1463 1463 1464 1464 1464 1465 1465 1465 1465 1465 1465 1465 1465 1465 1465 1465 1464 1464 1464 1464 1464 1463 1463 1462 1462 1461 1460 1460 1459 1458 1458 1458 1458 1457 1457